| time (UTC) | temp C | wind direction | speed KPH | gust KPH | rain 1hr cm | rain 24hr cm | rain mn cm | humidity % | barometer mb |
| 20260507093057 | 8 | 1 | 6.4 | 12.9 | 0.00 | 0.08 | 0.00 | 87 | 1016.2 |
| 20260507092058 | 8 | 320 | 6.4 | 11.3 | 0.00 | 0.10 | 0.00 | 88 | 1016.0 |
| 20260507091058 | 7 | 358 | 6.4 | 14.5 | 0.00 | 0.13 | 0.00 | 89 | 1016.1 |
| 20260507090059 | 7 | 3 | 8.0 | 14.5 | 0.00 | 0.15 | 0.00 | 90 | 1016.1 |
| 20260507085058 | 7 | 3 | 8.0 | 12.9 | 0.00 | 0.18 | 0.00 | 92 | 1016.1 |
| 20260507084059 | 7 | 342 | 6.4 | 9.7 | 0.00 | 0.20 | 0.00 | 93 | 1016.2 |
| 20260507083100 | 6 | 344 | 4.8 | 9.7 | 0.00 | 0.23 | 0.00 | 92 | 1016.1 |
| 20260507081100 | 6 | 351 | 4.8 | 11.3 | 0.00 | 0.28 | 0.00 | 94 | 1016.1 |
| 20260507080055 | 6 | 4 | 4.8 | 14.5 | 0.00 | 0.30 | 0.00 | 95 | 1016.1 |
| 20260507075100 | 6 | 12 | 6.4 | 11.3 | 0.00 | 0.33 | 0.00 | 96 | 1015.9 |
| 20260507072057 | 5 | 345 | 6.4 | 12.9 | 0.00 | 0.38 | 0.00 | 98 | 1015.8 |
| 20260507071058 | 5 | 349 | 4.8 | 8.0 | 0.00 | 0.41 | 0.00 | 98 | 1015.8 |
| 20260507070057 | 5 | 318 | 6.4 | 11.3 | 0.00 | 0.41 | 0.00 | 99 | 1015.7 |
| 20260507065055 | 5 | 316 | 4.8 | 9.7 | 0.00 | 0.43 | 0.00 | 99 | 1015.6 |
| 20260507064056 | 5 | 335 | 4.8 | 9.7 | 0.00 | 0.43 | 0.00 | 99 | 1015.5 |
| 20260507063053 | 5 | 338 | 4.8 | 8.0 | 0.00 | 0.43 | 0.00 | 10 | 1015.5 |
| 20260507060056 | 5 | 8 | 6.4 | 11.3 | 0.00 | 0.43 | 0.00 | 10 | 1015.3 |
| 20260507055051 | 5 | 6 | 6.4 | 9.7 | 0.00 | 0.43 | 0.00 | 10 | 1015.2 |
| 20260507054056 | 5 | 14 | 6.4 | 11.3 | 0.00 | 0.43 | 0.00 | 10 | 1015.2 |
| 20260507052056 | 5 | 16 | 8.0 | 12.9 | 0.00 | 0.43 | 0.00 | 10 | 1014.9 |
| 20260507051057 | 5 | 15 | 8.0 | 14.5 | 0.00 | 0.43 | 0.00 | 10 | 1014.7 |
| 20260507050055 | 5 | 11 | 8.0 | 11.3 | 0.00 | 0.43 | 0.00 | 10 | 1014.6 |
| 20260507045056 | 5 | 16 | 8.0 | 11.3 | 0.00 | 0.43 | 0.00 | 10 | 1014.5 |
| 20260507044058 | 5 | 18 | 6.4 | 12.9 | 0.00 | 0.46 | 0.00 | 10 | 1014.5 |
| 20260507043056 | 5 | 16 | 6.4 | 8.0 | 0.00 | 0.46 | 0.00 | 10 | 1014.4 |
| 20260507042057 | 4 | 20 | 6.4 | 11.3 | 0.00 | 0.46 | 0.00 | 10 | 1014.3 |
| 20260507041055 | 4 | 20 | 6.4 | 12.9 | 0.00 | 0.46 | 0.00 | 10 | 1014.2 |
| 20260507040058 | 4 | 18 | 6.4 | 11.3 | 0.00 | 0.48 | 0.00 | 10 | 1014.2 |
| 20260507035056 | 4 | 17 | 6.4 | 11.3 | 0.00 | 0.48 | 0.00 | 10 | 1014.1 |
| 20260507034056 | 4 | 21 | 6.4 | 9.7 | 0.00 | 0.48 | 0.00 | 10 | 1014.0 |
| 20260507033055 | 4 | 12 | 4.8 | 8.0 | 0.00 | 0.48 | 0.00 | 10 | 1014.0 |
| 20260507032057 | 4 | 19 | 6.4 | 8.0 | 0.00 | 0.48 | 0.00 | 10 | 1014.0 |
| 20260507031055 | 4 | 19 | 6.4 | 11.3 | 0.00 | 0.51 | 0.00 | 10 | 1013.9 |
| 20260507025054 | 4 | 20 | 6.4 | 9.7 | 0.00 | 0.51 | 0.00 | 10 | 1013.7 |
| 20260507024054 | 4 | 33 | 6.4 | 12.9 | 0.00 | 0.51 | 0.00 | 10 | 1013.7 |
| 20260507023057 | 5 | 32 | 9.7 | 14.5 | 0.00 | 0.51 | 0.00 | 10 | 1013.7 |
| 20260507022057 | 5 | 40 | 8.0 | 12.9 | 0.00 | 0.51 | 0.00 | 10 | 1013.6 |
| 20260507021056 | 5 | 35 | 8.0 | 12.9 | 0.00 | 0.51 | 0.00 | 10 | 1013.4 |
| 20260507020055 | 5 | 12 | 8.0 | 16.1 | 0.00 | 0.53 | 0.00 | 10 | 1013.3 |
| 20260507013054 | 5 | 10 | 9.7 | 16.1 | 0.00 | 0.56 | 0.00 | 10 | 1013.3 |
| 20260507012053 | 5 | 18 | 9.7 | 16.1 | 0.00 | 0.56 | 0.00 | 10 | 1013.3 |
| 20260507011057 | 5 | 20 | 8.0 | 14.5 | 0.00 | 0.58 | 0.00 | 10 | 1013.2 |
| 20260507010059 | 5 | 16 | 11.3 | 17.7 | 0.00 | 0.58 | 0.00 | 10 | 1013.2 |
| 20260507005055 | 5 | 20 | 9.7 | 14.5 | 0.00 | 0.58 | 0.00 | 10 | 1013.2 |
| 20260507004057 | 5 | 18 | 11.3 | 17.7 | 0.00 | 0.58 | 0.00 | 10 | 1013.2 |
| 20260507003055 | 5 | 8 | 9.7 | 16.1 | 0.00 | 0.58 | 0.00 | 10 | 1013.0 |
| 20260507002056 | 5 | 9 | 9.7 | 14.5 | 0.00 | 0.58 | 0.00 | 10 | 1012.9 |
| 20260507001055 | 5 | 14 | 8.0 | 12.9 | 0.00 | 0.58 | 0.00 | 10 | 1012.9 |
| 20260506234104 | 5 | 8 | 8.0 | 16.1 | 0.00 | 0.61 | 0.00 | 10 | 1012.8 |
| 20260506233103 | 5 | 14 | 8.0 | 14.5 | 0.00 | 0.61 | 0.00 | 10 | 1012.8 |
| 20260506232101 | 5 | 10 | 6.4 | 11.3 | 0.00 | 0.61 | 0.00 | 10 | 1012.8 |
| 20260506231102 | 5 | 22 | 9.7 | 14.5 | 0.00 | 0.61 | 0.00 | 10 | 1012.7 |
| 20260506230105 | 5 | 21 | 11.3 | 17.7 | 0.00 | 0.64 | 0.00 | 10 | 1012.6 |
| 20260506225101 | 5 | 25 | 9.7 | 14.5 | 0.00 | 0.64 | 0.00 | 10 | 1012.7 |
| 20260506223100 | 5 | 18 | 8.0 | 14.5 | 0.00 | 0.69 | 0.00 | 10 | 1012.6 |
| 20260506222104 | 5 | 9 | 6.4 | 11.3 | 0.00 | 0.71 | 0.00 | 99 | 1012.4 |
| 20260506221102 | 5 | 4 | 6.4 | 11.3 | 0.00 | 0.71 | 0.00 | 99 | 1012.3 |
| 20260506220112 | 5 | 5 | 6.4 | 12.9 | 0.00 | 0.71 | 0.00 | 99 | 1012.2 |
| 20260506215109 | 5 | 352 | 6.4 | 14.5 | 0.00 | 0.74 | 0.71 | 99 | 1012.1 |
| 20260506214108 | 5 | 358 | 8.0 | 14.5 | 0.00 | 0.74 | 0.71 | 99 | 1012.0 |
| 20260506213108 | 5 | 244 | 6.4 | 11.3 | 0.00 | 0.76 | 0.71 | 99 | 1012.0 |
| 20260506212107 | 5 | 9 | 6.4 | 12.9 | 0.00 | 0.79 | 0.71 | 99 | 1012.0 |
| 20260506211106 | 5 | 8 | 9.7 | 16.1 | 0.00 | 0.79 | 0.71 | 99 | 1011.9 |
| 20260506205106 | 5 | 18 | 11.3 | 17.7 | 0.00 | 0.79 | 0.71 | 99 | 1011.9 |
| 20260506204105 | 5 | 24 | 9.7 | 16.1 | 0.00 | 0.79 | 0.71 | 99 | 1011.8 |
| 20260506203108 | 5 | 24 | 8.0 | 14.5 | 0.00 | 0.79 | 0.71 | 98 | 1011.7 |
| 20260506202109 | 5 | 22 | 9.7 | 14.5 | 0.00 | 0.81 | 0.71 | 98 | 1011.6 |
| 20260506201109 | 5 | 20 | 9.7 | 14.5 | 0.00 | 0.84 | 0.71 | 98 | 1011.4 |
| 20260506200108 | 5 | 18 | 11.3 | 14.5 | 0.00 | 0.89 | 0.71 | 98 | 1011.3 |
| 20260506195106 | 5 | 17 | 8.0 | 12.9 | 0.00 | 0.91 | 0.71 | 98 | 1011.3 |
| 20260506193108 | 5 | 18 | 6.4 | 11.3 | 0.00 | 0.94 | 0.71 | 97 | 1011.2 |
| 20260506192107 | 5 | 19 | 8.0 | 11.3 | 0.00 | 0.97 | 0.71 | 97 | 1011.1 |
| 20260506191105 | 5 | 18 | 8.0 | 12.9 | 0.00 | 0.99 | 0.71 | 97 | 1011.1 |
| 20260506184101 | 6 | 10 | 9.7 | 14.5 | 0.00 | 1.07 | 0.71 | 96 | 1010.9 |
| 20260506183107 | 6 | 13 | 9.7 | 16.1 | 0.00 | 1.09 | 0.71 | 96 | 1010.7 |
| 20260506182106 | 6 | 17 | 11.3 | 17.7 | 0.00 | 1.17 | 0.71 | 96 | 1010.6 |
| 20260506181100 | 6 | 21 | 12.9 | 17.7 | 0.00 | 1.19 | 0.71 | 96 | 1010.4 |
| 20260506180107 | 7 | 13 | 11.3 | 19.3 | 0.00 | 1.24 | 0.71 | 96 | 1010.2 |
| 20260506175105 | 7 | 10 | 11.3 | 22.5 | 0.00 | 1.27 | 0.71 | 95 | 1010.1 |
| 20260506174103 | 7 | 14 | 11.3 | 19.3 | 0.00 | 1.32 | 0.71 | 95 | 1009.9 |
| 20260506173100 | 7 | 16 | 12.9 | 20.9 | 0.00 | 1.37 | 0.71 | 96 | 1009.8 |
| 20260506172104 | 7 | 15 | 9.7 | 17.7 | 0.00 | 1.42 | 0.71 | 96 | 1009.9 |
| 20260506171102 | 7 | 18 | 9.7 | 16.1 | 0.00 | 1.45 | 0.71 | 97 | 1009.8 |
| 20260506170059 | 7 | 11 | 8.0 | 16.1 | 0.00 | 1.47 | 0.71 | 96 | 1009.8 |
| 20260506165058 | 7 | 11 | 9.7 | 16.1 | 0.00 | 1.50 | 0.71 | 97 | 1009.8 |
| 20260506164100 | 6 | 16 | 9.7 | 16.1 | 0.00 | 1.52 | 0.71 | 99 | 1009.8 |
| 20260506163059 | 6 | 15 | 9.7 | 16.1 | 0.00 | 1.55 | 0.71 | 10 | 1009.8 |
| 20260506162101 | 6 | 15 | 8.0 | 14.5 | 0.00 | 1.55 | 0.71 | 10 | 1009.9 |
| 20260506161100 | 6 | 1 | 8.0 | 14.5 | 0.00 | 1.55 | 0.71 | 10 | 1010.0 |
| 20260506160059 | 6 | 359 | 8.0 | 14.5 | 0.00 | 1.55 | 0.71 | 10 | 1010.0 |
| 20260506155101 | 6 | 8 | 9.7 | 16.1 | 0.00 | 1.60 | 0.71 | 10 | 1009.9 |
| 20260506154105 | 6 | 11 | 9.7 | 17.7 | 0.00 | 1.63 | 0.71 | 10 | 1009.7 |
| 20260506153101 | 6 | 10 | 11.3 | 19.3 | 0.00 | 1.65 | 0.71 | 10 | 1009.5 |
| 20260506152100 | 6 | 358 | 9.7 | 20.9 | 0.00 | 1.65 | 0.71 | 10 | 1009.5 |
| 20260506151104 | 6 | 1 | 8.0 | 14.5 | 0.00 | 1.65 | 0.71 | 10 | 1009.4 |
| 20260506150059 | 6 | 8 | 11.3 | 17.7 | 0.00 | 1.65 | 0.71 | 10 | 1009.4 |
| 20260506144058 | 6 | 280 | 8.0 | 17.7 | 0.03 | 1.65 | 0.71 | 10 | 1009.4 |
| 20260506143057 | 7 | 332 | 8.0 | 16.1 | 0.03 | 1.65 | 0.71 | 10 | 1009.4 |
| 20260506142059 | 7 | 334 | 11.3 | 19.3 | 0.03 | 1.68 | 0.71 | 10 | 1009.4 |
| 20260506141058 | 7 | 351 | 9.7 | 16.1 | 0.03 | 1.68 | 0.71 | 10 | 1009.3 |
| 20260506140105 | 6 | 331 | 9.7 | 19.3 | 0.03 | 1.68 | 0.71 | 10 | 1009.4 |
| 20260506135100 | 6 | 331 | 8.0 | 14.5 | 0.03 | 1.68 | 0.71 | 10 | 1009.4 |
| 20260506134059 | 6 | 340 | 8.0 | 14.5 | 0.00 | 1.65 | 0.71 | 10 | 1009.4 |
| 20260506133100 | 7 | 355 | 9.7 | 16.1 | 0.00 | 1.65 | 0.71 | 10 | 1009.4 |
| 20260506132059 | 6 | 84 | 11.3 | 19.3 | 0.00 | 1.65 | 0.71 | 10 | 1009.3 |
| 20260506131101 | 6 | 1 | 11.3 | 20.9 | 0.00 | 1.65 | 0.71 | 10 | 1009.3 |
| 20260506130059 | 6 | 360 | 9.7 | 19.3 | 0.00 | 1.65 | 0.71 | 10 | 1009.2 |
| 20260506125058 | 6 | 1 | 9.7 | 16.1 | 0.00 | 1.65 | 0.71 | 10 | 1009.1 |
| 20260506123100 | 6 | 14 | 12.9 | 22.5 | 0.00 | 1.65 | 0.71 | 10 | 1009.0 |
| 20260506122058 | 6 | 9 | 12.9 | 19.3 | 0.00 | 1.65 | 0.71 | 10 | 1008.8 |
| 20260506114058 | 6 | 1 | 9.7 | 19.3 | 0.00 | 1.65 | 0.71 | 10 | 1008.6 |
| 20260506113059 | 6 | 17 | 11.3 | 17.7 | 0.03 | 1.65 | 0.71 | 10 | 1008.5 |
| 20260506112059 | 6 | 5 | 11.3 | 17.7 | 0.03 | 1.65 | 0.71 | 10 | 1008.5 |
| 20260506111058 | 6 | 360 | 8.0 | 16.1 | 0.03 | 1.73 | 0.71 | 10 | 1008.4 |
| 20260506110057 | 6 | 360 | 9.7 | 19.3 | 0.05 | 1.75 | 0.71 | 10 | 1008.3 |
| 20260506105057 | 6 | 343 | 9.7 | 20.9 | 0.05 | 1.83 | 0.71 | 10 | 1008.3 |
| 20260506104058 | 6 | 338 | 9.7 | 19.3 | 0.05 | 1.83 | 0.71 | 10 | 1008.3 |
| 20260506103059 | 6 | 146 | 9.7 | 17.7 | 0.05 | 1.83 | 0.71 | 10 | 1008.3 |
| 20260506102059 | 6 | 7 | 9.7 | 17.7 | 0.05 | 1.83 | 0.69 | 10 | 1008.2 |
| 20260506101057 | 6 | 347 | 8.0 | 16.1 | 0.08 | 1.83 | 0.69 | 10 | 1008.3 |
| 20260506100056 | 6 | 345 | 8.0 | 19.3 | 0.10 | 1.83 | 0.69 | 10 | 1008.2 |
| 20260506094057 | 6 | 343 | 8.0 | 16.1 | 0.15 | 1.80 | 0.66 | 10 | 1008.1 |